Weather History for Sparta, WI

Change the Weather History Date:

Monday, February 3, 2014

  Actual Average Record
Temperature  
Mean Temperature 0 °F -  
Max Temperature 23 °F 26 °F 50 °F (1987)
Min Temperature -22 °F 3 °F -32 °F (1985)
Degree Days  
Heating Degree Days 64    
Moisture  
Dew Point -8 °F    
Average Humidity 67    
Maximum Humidity 88    
Minimum Humidity 47    
Precipitation  
Precipitation 0.00 in - - ()
Sea Level Pressure  
Sea Level Pressure 30.28 in    
Wind  
Wind Speed 2 mph (SW)    
Max Wind Speed 10 mph    
Max Gust Speed -    
Visibility 10 miles    
Events      
Averages and records for this station are not official NWS values.
T = Trace of Precipitation, MM = Missing Value Source: NWS Daily Summary

Daily Weather History Graph

Daily Weather History Graph

Search for Another Location

Airport:

Trip Planner

Search our weather history database for the weather conditions in past years. The results will help you decide how hot, cold, wet, or windy it might be!

Date:

Astronomy

Feb. 03, 2014 Rise Set
Actual Time 7:17 AM CST 5:16 PM CST
Civil Twilight 6:47 AM CST 5:46 PM CST
Nautical Twilight 6:13 AM CST 6:21 PM CST
Astronomical Twilight 5:39 AM CST 6:54 PM CST
Moon 9:09 AM CST (2/3) 10:18 PM CST (2/3)
Length of Visible Light 10h 59m
Length of Day
9h 58m
Waxing Crescent, 20% of the Moon is Illuminated
Feb 3
Waxing Crescent
Feb 6
First Quarter
Feb 14
Full
Feb 22
Last Quarter
Mar 1
New

Hourly Weather History & Observations

Time (CST) Temp. Windchill Dew Point Humidity Pressure Visibility Wind Dir Wind Speed Gust Speed Precip Events Conditions
12:15 AM -19.3 °F - -24.9 °F 76% 30.30 in 10.0 mi Calm Calm - N/A   Clear
12:35 AM -19.5 °F - -25.2 °F 75% 30.30 in 10.0 mi Calm Calm - N/A   Clear
12:55 AM -19.5 °F - -24.0 °F 80% 30.29 in 10.0 mi Calm Calm - N/A   Clear
1:15 AM -20.2 °F - -25.8 °F 75% 30.29 in 10.0 mi Calm Calm - N/A   Clear
1:35 AM -20.9 °F - -26.9 °F 74% 30.28 in 10.0 mi Calm Calm - N/A   Clear
1:55 AM -21.1 °F - -27.0 °F 74% 30.29 in 10.0 mi Calm Calm - N/A   Clear
2:15 AM -20.6 °F - -26.7 °F 73% 30.29 in 10.0 mi Calm Calm - N/A   Clear
2:35 AM -21.5 °F - -27.6 °F 73% 30.30 in 10.0 mi Calm Calm - N/A   Clear
2:55 AM -21.5 °F - -27.4 °F 74% 30.30 in 10.0 mi Calm Calm - N/A   Clear
3:15 AM -21.8 °F - -27.9 °F 73% 30.29 in 10.0 mi Calm Calm - N/A   Clear
3:35 AM -22.2 °F - -28.1 °F 74% 30.29 in 10.0 mi Calm Calm - N/A   Clear
3:55 AM -22.2 °F - -28.3 °F 73% 30.28 in 10.0 mi Calm Calm - N/A   Clear
4:15 AM -21.5 °F - -27.2 °F 75% 30.28 in 10.0 mi Calm Calm - N/A   Clear
4:35 AM -22.0 °F - -28.3 °F 73% 30.28 in 10.0 mi Calm Calm - N/A   Clear
4:55 AM -22.0 °F - -28.1 °F 73% 30.28 in 10.0 mi Calm Calm - N/A   Clear
5:15 AM -22.2 °F - -28.3 °F 73% 30.28 in 10.0 mi Calm Calm - N/A   Clear
5:35 AM -21.6 °F - -27.9 °F 73% 30.27 in 10.0 mi Calm Calm - N/A   Clear
5:55 AM -22.4 °F - -28.3 °F 74% 30.27 in 10.0 mi Calm Calm - N/A   Clear
6:15 AM -22.5 °F - -28.7 °F 73% 30.27 in 10.0 mi Calm Calm - N/A   Clear
6:35 AM -22.0 °F - -28.3 °F 73% 30.26 in 10.0 mi Calm Calm - N/A   Clear
6:55 AM -22.2 °F - -28.3 °F 73% 30.27 in 10.0 mi Calm Calm - N/A   Clear
7:15 AM -22.0 °F - -28.3 °F 73% 30.27 in 10.0 mi Calm Calm - N/A   Clear
7:35 AM -21.5 °F - -26.9 °F 76% 30.28 in 10.0 mi Calm Calm - N/A   Clear
7:55 AM -20.6 °F - -27.0 °F 72% 30.27 in 10.0 mi Calm Calm - N/A   Clear
8:15 AM -18.9 °F - -25.2 °F 73% 30.27 in 10.0 mi Calm Calm - N/A   Clear
8:35 AM -17.0 °F - -24.3 °F 69% 30.26 in 10.0 mi Calm Calm - N/A   Clear
8:55 AM -11.4 °F - -18.0 °F 72% 30.26 in 10.0 mi Calm Calm - N/A   Clear
9:15 AM -7.2 °F - -14.3 °F 71% 30.26 in 10.0 mi Calm Calm - N/A   Clear
9:55 AM 4.3 °F - -4.9 °F 66% 30.27 in 10.0 mi Calm Calm - N/A   Clear
10:15 AM 12.2 °F 0.7 °F 1.2 °F 61% 30.27 in 10.0 mi SSW 8.1 mph - N/A   Clear
10:35 AM 15.8 °F 6.1 °F 2.1 °F 55% 30.27 in 10.0 mi SW 6.9 mph - N/A   Clear
10:55 AM 17.1 °F 7.6 °F 2.7 °F 53% 30.27 in 10.0 mi SSW 6.9 mph - N/A   Clear
11:15 AM 18.7 °F 8.6 °F 3.7 °F 52% 30.26 in 10.0 mi SSW 8.1 mph - N/A   Clear
11:35 AM 19.6 °F 10.6 °F 4.1 °F 51% 30.26 in 10.0 mi SW 6.9 mph - N/A   Clear
11:55 AM 20.7 °F 11.0 °F 4.6 °F 50% 30.26 in 10.0 mi SSW 8.1 mph - N/A   Clear
12:15 PM 21.6 °F 12.1 °F 5.2 °F 49% 30.25 in 10.0 mi SSW 8.1 mph - N/A   Clear
12:35 PM 22.6 °F 14.3 °F 6.1 °F 49% 30.24 in 10.0 mi SW 6.9 mph - N/A   Clear
12:55 PM 23.0 °F 14.7 °F 5.9 °F 48% 30.23 in 10.0 mi SSW 6.9 mph - N/A   Clear
1:15 PM 23.0 °F 13.1 °F 6.1 °F 48% 30.22 in 10.0 mi South 9.2 mph - N/A   Clear
1:35 PM 21.9 °F 11.7 °F 6.6 °F 52% 30.22 in 10.0 mi South 9.2 mph - N/A   Clear
1:55 PM 23.5 °F 13.0 °F 6.6 °F 49% 30.22 in 10.0 mi SW 10.4 mph - N/A   Clear
2:15 PM 23.9 °F 16.8 °F 6.4 °F 47% 30.22 in 10.0 mi SSW 5.8 mph - N/A   Clear
2:55 PM 23.9 °F 15.8 °F 6.3 °F 47% 30.24 in 10.0 mi SSW 6.9 mph - N/A   Clear
3:15 PM 23.2 °F 16.0 °F 6.3 °F 48% 30.24 in 10.0 mi SSW 5.8 mph - N/A   Clear
3:35 PM 23.0 °F - 6.6 °F 50% 30.24 in 10.0 mi Calm Calm - N/A   Clear
3:55 PM 23.0 °F 14.7 °F 7.3 °F 51% 30.24 in 10.0 mi SW 6.9 mph - N/A   Clear
4:15 PM 23.5 °F 15.4 °F 7.7 °F 51% 30.24 in 10.0 mi SW 6.9 mph - N/A   Clear
4:35 PM 22.1 °F 12.8 °F 7.5 °F 54% 30.25 in 10.0 mi SSW 8.1 mph - N/A   Clear
4:55 PM 21.2 °F 12.6 °F 7.5 °F 56% 30.26 in 10.0 mi SW 6.9 mph - N/A   Clear
5:15 PM 20.3 °F - 7.5 °F 58% 30.27 in 10.0 mi Calm Calm - N/A   Clear
5:35 PM 19.9 °F 13.4 °F 7.5 °F 59% 30.27 in 10.0 mi SW 4.6 mph - N/A   Clear
5:55 PM 19.0 °F - 7.3 °F 60% 30.27 in 10.0 mi Calm Calm - N/A   Clear
6:15 PM 18.1 °F 12.9 °F 7.2 °F 62% 30.28 in 10.0 mi WSW 3.5 mph - N/A   Clear
6:35 PM 17.4 °F 12.1 °F 6.8 °F 63% 30.28 in 10.0 mi WSW 3.5 mph - N/A   Clear
6:55 PM 16.9 °F - 6.8 °F 65% 30.29 in 10.0 mi Calm Calm - N/A   Clear
7:15 PM 16.0 °F - 6.4 °F 66% 30.29 in 10.0 mi Calm Calm - N/A   Clear
7:35 PM 14.7 °F 9.0 °F 5.9 °F 68% 30.29 in 10.0 mi WSW 3.5 mph - N/A   Clear
7:55 PM 14.0 °F 8.2 °F 5.9 °F 70% 30.30 in 10.0 mi WSW 3.5 mph - N/A   Clear
8:15 PM 12.7 °F - 5.7 °F 74% 30.30 in 10.0 mi Calm Calm - N/A   Clear
8:35 PM 8.1 °F - 3.2 °F 81% 30.30 in 10.0 mi Calm Calm - N/A   Clear
8:55 PM 8.6 °F - 4.1 °F 82% 30.31 in 10.0 mi Calm Calm - N/A   Clear
9:15 PM 4.1 °F - 0.1 °F 84% 30.31 in 10.0 mi Calm Calm - N/A   Clear
9:35 PM 3.6 °F - 0.5 °F 87% 30.31 in 10.0 mi Calm Calm - N/A   Clear
9:55 PM 1.9 °F - -0.9 °F 88% 30.31 in 10.0 mi Calm Calm - N/A   Clear
10:15 PM 1.2 °F - -1.8 °F 87% 30.32 in 10.0 mi Calm Calm - N/A   Clear
10:35 PM -0.8 °F - -4.4 °F 85% 30.32 in 10.0 mi Calm Calm - N/A   Clear
10:55 PM 0.7 °F - -2.4 °F 87% 30.33 in 10.0 mi Calm Calm - N/A   Clear
11:15 PM 1.9 °F - -2.2 °F 83% 30.33 in 10.0 mi Calm Calm - N/A   Clear
11:35 PM 2.3 °F - -1.8 °F 83% 30.33 in 10.0 mi Calm Calm - N/A   Clear
11:55 PM 3.7 °F - -0.4 °F 83% 30.34 in 10.0 mi Calm Calm - N/A   Clear